Погода в Мичуринском

Россия / Карачаево-Черкесская Республика     44°16′42″N   42°19′01″E
темп.,
°C
ветер,
м/с
пор.,
м/с
влажн.,
%
обл.,
%
осадки,
мм/ч
давл.,
гПа
погр.,
м
9 мая, вс
вс900:00+12юв228636 0.0 101015
03:00+13з1175100 0.0 100912
06:00+12сз3785100 0.1 1010237
09:00+14сз448085 0.3 1010724
12:00+9зсз101295100 3.8 1013677
15:00+6зсз91395100 7.8 1016939
18:00+3з81397100 3.1 1022907
21:00+4з81397100 6.3 1023949
10 мая, пн
пн1000:00+3зюз6129314 0.5 1024523
03:00+2зюз511925 0.5 1024347
06:00+3зюз613865 0.1 1023584
09:00+7з81171100 0.4 10221494
12:00+9зсз8105987 0.6 10201873
15:00+9зсз8106382 0.9 10191588
18:00+7зсз71179100 0.4 10211196
21:00+4з71289100 1.1 1021867
11 мая, вт
вт1100:00+3з23935 0.0 1020117
03:00+1ююв2289100 0.0 102019
06:00+3юв2480100 0.0 1019123
09:00+8вюв4662100 0.0 1016459
12:00+12в5551100 0.0 10161351
15:00+13в665693 0.0 10161465
18:00+11в6968100 0.0 1017734
21:00+6в379136 0.0 1019136
12 мая, ср
ср1200:00+5вюв22905 0.0 101815
03:00+5вюв119069 0.0 101812
06:00+6вюв2387100 0.0 1018110
09:00+12в687093 0.0 1015717
12:00+16в77620 0.0 1015954
15:00+17в66600 0.0 1015965
18:00+15в610730 0.0 1015532
21:00+10вюв48920 0.0 1015138
13 мая, чт
чт1300:00+9вюв22910 0.0 101518
03:00+8вюв22875 0.0 101511
06:00+10вюв22770 0.0 101633
09:00+17в35555 0.0 1015358
12:00+21в6752100 0.0 1014667
15:00+22в7958100 0.0 1013844
18:00+19в71372100 0.0 1014506
21:00+14вюв49919 0.0 1015182